User: anonymous   Login
Location: Unspecified
(30.8073°N, 0.0000°E)
Time: 03:57:58
(UTC+00:00)
Language:

Orbcomm 28 - Orbit

View from above orbital plane
View from above orbital plane
View from above satellite
View from above satellite

Ground track
Ground track

The orbit is defined by the following mean orbital elements,

1 25482U          26088.01426439 +.00000000 +00000-0 +33649-3 0 00005
2 25482  45.0052 293.2919 0003949 292.2318  67.8112 14.39067619    07
Epoch (UTC): 29 March 2026 00:20:32
Eccentricity: 0.0003949
inclination: 45.0052°
perigee height: 759 km
apogee height: 764 km
right ascension of ascending node: 293.2919°
argument of perigee: 292.2318°
revolutions per day: 14.39067619
mean anomaly at epoch: 67.8112°

The dashed part of the orbit path shows where the satellite is in the earth's shadow,  

DLR